SQ5OUZ-1 Weather Reports


Display with metric or nautical units.
time (UTC)temp
F
wind
direction
speed
MPH
gust
MPH
rain 1hr
in
rain 24hr
in
rain mn
in
humidity
%
barometer
mb
20260506232419 62 0 0.0 0.0 0.00 0.00 0.00 61 1007.7
20260506230916 62 0 0.0 0.0 0.00 0.00 0.00 61 1007.6
20260506225412 63 0 0.0 0.0 0.00 0.00 0.00 58 1007.4
20260506223909 63 0 0.0 0.0 0.00 0.00 0.00 56 1007.4
20260506222406 63 0 0.0 0.0 0.00 0.00 0.00 56 1007.4
20260506220903 64 0 0.0 0.0 0.00 0.00 0.00 55 1007.5
20260506215359 64 0 0.0 0.0 0.00 0.00 0.00 55 1007.4
20260506213856 64 0 0.0 0.0 0.00 0.00 0.00 54 1007.5
20260506212353 64 0 0.0 0.0 0.00 0.00 0.00 54 1007.6
20260506210850 65 0 0.0 0.0 0.00 0.00 0.00 55 1007.8
20260506205346 65 0 0.0 0.0 0.00 0.00 0.00 56 1007.8
20260506203842 65 0 0.0 0.0 0.00 0.00 0.00 57 1008.0
20260506202339 66 0 0.0 0.0 0.00 0.00 0.00 58 1008.1
20260506200836 67 0 0.0 0.0 0.00 0.00 0.00 52 1008.0
20260506195332 68 0 0.0 0.0 0.00 0.00 0.00 51 1007.8
20260506193829 69 0 0.0 0.0 0.00 0.00 0.00 46 1007.9
20260506192325 70 0 0.0 0.0 0.00 0.00 0.00 43 1007.4
20260506190822 70 0 0.0 0.0 0.00 0.00 0.00 41 1007.3
20260506185318 71 0 0.0 0.0 0.00 0.00 0.00 38 1007.2
20260506183815 71 0 0.0 0.0 0.00 0.00 0.00 38 1007.2
20260506182312 71 0 0.0 0.0 0.00 0.00 0.00 38 1007.0
20260506180808 71 0 0.0 0.0 0.00 0.00 0.00 37 1006.9
20260506175306 72 0 0.0 0.0 0.00 0.00 0.00 37 1006.7
20260506173802 73 0 0.0 0.0 0.00 0.00 0.00 37 1006.9
20260506172259 74 0 0.0 0.0 0.00 0.00 0.00 35 1006.8
20260506170755 75 0 0.0 0.0 0.00 0.00 0.00 34 1006.7
20260506164305 76 0 0.0 0.0 0.00 0.00 0.00 33 1006.6
20260506162802 76 0 0.0 0.0 0.00 0.00 0.00 33 1006.5
20260506161258 76 0 0.0 0.0 0.00 0.00 0.00 32 1006.5
20260506155754 78 0 0.0 0.0 0.00 0.00 0.00 32 1006.5
20260506154251 78 0 0.0 0.0 0.00 0.00 0.00 31 1006.6
20260506152748 78 0 0.0 0.0 0.00 0.00 0.00 31 1006.6
20260506151244 78 0 0.0 0.0 0.00 0.00 0.00 30 1006.7
20260506145741 79 0 0.0 0.0 0.00 0.00 0.00 31 1006.8
20260506144238 78 0 0.0 0.0 0.00 0.00 0.00 32 1006.9
20260506142735 78 0 0.0 0.0 0.00 0.00 0.00 32 1006.9
20260506141231 78 0 0.0 0.0 0.00 0.00 0.00 31 1006.9
20260506135728 79 0 0.0 0.0 0.00 0.00 0.00 31 1007.0
20260506134225 80 0 0.0 0.0 0.00 0.00 0.00 31 1006.9
20260506132722 80 0 0.0 0.0 0.00 0.00 0.00 31 1006.9
20260506131218 79 0 0.0 0.0 0.00 0.00 0.00 32 1006.9
20260506125715 80 0 0.0 0.0 0.00 0.00 0.00 31 1006.9
20260506124212 80 0 0.0 0.0 0.00 0.00 0.00 32 1006.8
20260506122709 80 0 0.0 0.0 0.00 0.00 0.00 32 1007.1
20260506121205 79 0 0.0 0.0 0.00 0.00 0.00 33 1007.1
20260506115702 79 0 0.0 0.0 0.00 0.00 0.00 32 1006.9
20260506114159 79 0 0.0 0.0 0.00 0.00 0.00 32 1007.0
20260506112655 80 0 0.0 0.0 0.00 0.00 0.00 32 1006.9
20260506111152 80 0 0.0 0.0 0.00 0.00 0.00 32 1006.8
20260506105649 81 0 0.0 0.0 0.00 0.00 0.00 31 1006.8
20260506104146 81 0 0.0 0.0 0.00 0.00 0.00 30 1006.6
20260506102643 82 0 0.0 0.0 0.00 0.00 0.00 29 1006.6
20260506101139 83 0 0.0 0.0 0.00 0.00 0.00 27 1006.6
20260506095636 82 0 0.0 0.0 0.00 0.00 0.00 27 1006.6
20260506094132 84 0 0.0 0.0 0.00 0.00 0.00 25 1006.6
20260506092628 83 0 0.0 0.0 0.00 0.00 0.00 25 1006.6
20260506091125 86 0 0.0 0.0 0.00 0.00 0.00 22 1006.6
20260506085622 87 0 0.0 0.0 0.00 0.00 0.00 22 1006.5
20260506084119 87 0 0.0 0.0 0.00 0.00 0.00 22 1006.6
20260506082615 86 0 0.0 0.0 0.00 0.00 0.00 23 1006.5
20260506081112 85 0 0.0 0.0 0.00 0.00 0.00 23 1006.5
20260506072602 87 0 0.0 0.0 0.00 0.00 0.00 22 1006.7
20260506071059 86 0 0.0 0.0 0.00 0.00 0.00 23 1006.7
20260506061046 78 0 0.0 0.0 0.00 0.00 0.00 29 1006.9
20260506051033 65 0 0.0 0.0 0.00 0.00 0.00 41 1006.9
20260506044027 68 0 0.0 0.0 0.00 0.00 0.00 36 1006.9
20260506042523 64 0 0.0 0.0 0.00 0.00 0.00 41 1007.1
20260506041020 60 0 0.0 0.0 0.00 0.00 0.00 46 1007.3
20260506035517 58 0 0.0 0.0 0.00 0.00 0.00 49 1007.2
20260506034014 57 0 0.0 0.0 0.00 0.00 0.00 50 1007.0
20260506032510 57 0 0.0 0.0 0.00 0.00 0.00 50 1007.1
20260506031007 57 0 0.0 0.0 0.00 0.00 0.00 49 1007.1
20260506025504 58 0 0.0 0.0 0.00 0.00 0.00 48 1007.2
20260506024001 59 0 0.0 0.0 0.00 0.00 0.00 46 1007.2
20260506022457 59 0 0.0 0.0 0.00 0.00 0.00 44 1007.1
20260506020954 60 0 0.0 0.0 0.00 0.00 0.00 43 1007.3
20260506015451 61 0 0.0 0.0 0.00 0.00 0.00 41 1007.3
20260506013947 62 0 0.0 0.0 0.00 0.00 0.00 38 1007.3
20260506012444 63 0 0.0 0.0 0.00 0.00 0.00 37 1007.4
20260506010941 63 0 0.0 0.0 0.00 0.00 0.00 36 1007.3
20260506005438 63 0 0.0 0.0 0.00 0.00 0.00 37 1007.3
20260506003934 62 0 0.0 0.0 0.00 0.00 0.00 38 1007.4
20260506002431 62 0 0.0 0.0 0.00 0.00 0.00 38 1007.4
20260506000928 61 0 0.0 0.0 0.00 0.00 0.00 38 1007.4
20260505235425 62 0 0.0 0.0 0.00 0.00 0.00 38 1007.5
20260505233921 62 0 0.0 0.0 0.00 0.00 0.00 38 1007.6